Location: ??????
(55.7522°N, 37.6156°E)
Time: 17:50:57
(UTC+00:00)

CZ-2C R/B - Pass Details

Date: 14 June 2025
Orbit: 632 x 691 km, 98.1° (Epoch: 13 July)

Event Time Altitude Azimuth Distance (km) Brightness Sun altitude
Rises 20:07:13 0° 18° (NNE) 2,980 8.0 -9.0°
Reaches altitude 10° 20:09:29 10° 24° (NNE) 2,073 7.0 -9.1°
Maximum altitude 20:13:54 51° 101° (E) 837 4.0 -9.3°
Enters shadow 20:18:02 12° 176° (S) 1,967 5.5 -9.5°
